Time,TemperatureF,DewpointF,PressureIn,WindDirection,WindDirectionDegrees,WindSpeedMPH,WindSpeedGustMPH,Humidity,HourlyPrecipIn,Conditions,Clouds,dailyrainin,SoftwareType,DateUTC
2013-01-02 00:00:00,22.6,-4.1,30.06,SW,225,0.0,0.0,30,0.00,,---,0.00,VWS V14.01,2013-01-02 05:00:00,
2013-01-02 00:01:00,22.6,-4.1,30.06,SW,225,0.0,5.8,30,0.00,,---,0.00,VWS V14.01,2013-01-02 05:01:00,
2013-01-02 00:02:00,22.6,-4.1,30.06,SW,225,2.7,7.2,30,0.00,,---,0.00,VWS V14.01,2013-01-02 05:02:00,
2013-01-02 00:07:00,22.6,-4.1,30.06,SW,225,2.7,7.2,30,0.00,,---,0.00,VWS V14.01,2013-01-02 05:07:00,
2013-01-02 00:12:00,22.6,-4.1,30.03,SW,225,2.2,5.4,30,0.00,,---,0.00,VWS V14.01,2013-01-02 05:12:00,
2013-01-02 00:17:00,22.6,-4.1,30.03,NW,315,0.0,5.4,30,0.00,,---,0.00,VWS V14.01,2013-01-02 05:17:00,
2013-01-02 00:22:00,22.6,-6.3,30.03,SW,225,0.0,6.3,27,0.00,,---,0.00,VWS V14.01,2013-01-02 05:22:00,
2013-01-02 00:27:00,22.6,-6.3,30.03,West,270,0.0,8.1,27,0.00,,---,0.00,VWS V14.01,2013-01-02 05:27:00,
2013-01-02 00:32:00,22.6,-4.1,30.03,South,180,2.2,2.7,30,0.00,,---,0.00,VWS V14.01,2013-01-02 05:32:00,
2013-01-02 00:37:00,22.6,-4.1,30.03,SW,225,2.7,5.8,30,0.00,,---,0.00,VWS V14.01,2013-01-02 05:37:00,
2013-01-02 00:42:00,22.6,-4.1,30.03,West,270,2.7,4.9,30,0.00,,---,0.00,VWS V14.01,2013-01-02 05:42:00,
2013-01-02 00:47:00,22.6,-4.1,30.03,SW,225,3.6,4.9,30,0.00,,---,0.00,VWS V14.01,2013-01-02 05:47:00,
2013-01-02 00:52:00,22.6,-4.1,30.03,West,270,0.0,2.7,30,0.00,,---,0.00,VWS V14.01,2013-01-02 05:52:00,
2013-01-02 00:57:00,22.6,-4.1,30.03,WNW,292,0.0,4.0,30,0.00,,---,0.00,VWS V14.01,2013-01-02 05:57:00,
2013-01-02 01:02:00,22.6,-6.3,30.03,SW,225,0.0,5.4,27,0.00,,---,0.00,VWS V14.01,2013-01-02 06:02:00,
2013-01-02 01:07:00,22.6,-6.3,30.03,West,270,5.4,5.4,27,0.00,,---,0.00,VWS V14.01,2013-01-02 06:07:00,
2013-01-02 01:12:00,22.8,-6.1,30.03,WNW,292,4.0,5.8,27,0.00,,---,0.00,VWS V14.01,2013-01-02 06:12:00,
2013-01-02 01:17:00,22.6,-6.3,30.03,SW,225,3.1,5.8,27,0.00,,---,0.00,VWS V14.01,2013-01-02 06:17:00,
2013-01-02 01:22:00,22.6,-6.3,30.03,West,270,0.0,3.6,27,0.00,,---,0.00,VWS V14.01,2013-01-02 06:22:00,
2013-01-02 01:27:00,22.6,-6.3,30.06,SW,225,3.1,5.4,27,0.00,,---,0.00,VWS V14.01,2013-01-02 06:27:00,
2013-01-02 01:32:00,22.6,-6.3,30.06,SW,225,0.0,4.0,27,0.00,,---,0.00,VWS V14.01,2013-01-02 06:32:00,
2013-01-02 01:37:00,22.6,-6.3,30.06,West,270,2.2,4.0,27,0.00,,---,0.00,VWS V14.01,2013-01-02 06:37:00,
2013-01-02 01:42:00,22.6,-6.3,30.03,SW,225,2.2,3.1,27,0.00,,---,0.00,VWS V14.01,2013-01-02 06:42:00,
2013-01-02 01:47:00,22.6,-6.3,30.03,West,270,5.8,7.2,27,0.00,,---,0.00,VWS V14.01,2013-01-02 06:47:00,
2013-01-02 01:52:00,22.6,-6.3,30.03,NW,315,0.0,3.6,27,0.00,,---,0.00,VWS V14.01,2013-01-02 06:52:00,
2013-01-02 01:57:00,22.6,-6.3,30.03,West,270,2.7,4.0,27,0.00,,---,0.00,VWS V14.01,2013-01-02 06:57:00,
2013-01-02 02:02:00,22.6,-6.3,30.03,SW,225,3.6,6.3,27,0.00,,---,0.00,VWS V14.01,2013-01-02 07:02:00,
2013-01-02 02:07:00,22.6,-6.3,30.03,SW,225,2.7,6.3,27,0.00,,---,0.00,VWS V14.01,2013-01-02 07:07:00,
2013-01-02 02:12:00,22.6,-6.3,30.03,SSE,158,3.6,3.6,27,0.00,,---,0.00,VWS V14.01,2013-01-02 07:12:00,
2013-01-02 02:17:00,22.6,-6.3,30.03,SW,225,4.0,5.8,27,0.00,,---,0.00,VWS V14.01,2013-01-02 07:17:00,
2013-01-02 02:22:00,22.6,-6.3,30.03,SW,225,0.0,5.8,27,0.00,,---,0.00,VWS V14.01,2013-01-02 07:22:00,
2013-01-02 02:27:00,22.6,-6.3,30.03,SW,225,2.7,5.8,27,0.00,,---,0.00,VWS V14.01,2013-01-02 07:27:00,
2013-01-02 02:32:00,22.6,-6.3,30.03,SW,225,0.0,5.4,27,0.00,,---,0.00,VWS V14.01,2013-01-02 07:32:00,
2013-01-02 02:37:00,22.6,-6.3,30.03,West,270,2.2,5.8,27,0.00,,---,0.00,VWS V14.01,2013-01-02 07:37:00,
2013-01-02 02:42:00,22.6,-6.3,30.03,SW,225,3.6,3.6,27,0.00,,---,0.00,VWS V14.01,2013-01-02 07:42:00,
2013-01-02 02:47:00,22.6,-6.3,30.03,West,270,2.7,7.6,27,0.00,,---,0.00,VWS V14.01,2013-01-02 07:47:00,
2013-01-02 02:52:00,22.6,-6.3,30.03,SW,225,2.7,3.1,27,0.00,,---,0.00,VWS V14.01,2013-01-02 07:52:00,
2013-01-02 02:57:00,22.6,-6.3,30.03,SW,225,3.1,8.3,27,0.00,,---,0.00,VWS V14.01,2013-01-02 07:57:00,
2013-01-02 03:02:00,22.6,-6.3,30.03,SW,225,3.6,7.6,27,0.00,,---,0.00,VWS V14.01,2013-01-02 08:02:00,
2013-01-02 03:07:00,22.6,-6.3,30.03,West,270,3.1,7.6,27,0.00,,---,0.00,VWS V14.01,2013-01-02 08:07:00,
2013-01-02 03:12:00,22.6,-6.3,30.06,SW,225,2.7,5.8,27,0.00,,---,0.00,VWS V14.01,2013-01-02 08:12:00,
2013-01-02 03:17:00,22.5,-6.5,30.06,SW,225,3.6,7.2,27,0.00,,---,0.00,VWS V14.01,2013-01-02 08:17:00,
2013-01-02 03:22:00,22.5,-6.5,30.06,West,270,7.2,7.2,27,0.00,,---,0.00,VWS V14.01,2013-01-02 08:22:00,
2013-01-02 03:27:00,22.5,-4.3,30.03,WNW,292,5.4,7.2,30,0.00,,---,0.00,VWS V14.01,2013-01-02 08:27:00,
2013-01-02 03:32:00,22.3,-4.4,30.03,West,270,4.0,4.0,30,0.00,,---,0.00,VWS V14.01,2013-01-02 08:32:00,
2013-01-02 03:37:00,22.3,-4.4,30.03,West,270,2.7,5.8,30,0.00,,---,0.00,VWS V14.01,2013-01-02 08:37:00,
2013-01-02 03:42:00,22.3,-4.4,30.03,SSW,202,5.4,6.3,30,0.00,,---,0.00,VWS V14.01,2013-01-02 08:42:00,
2013-01-02 03:47:00,22.1,-4.6,30.03,SW,225,2.7,6.3,30,0.00,,---,0.00,VWS V14.01,2013-01-02 08:47:00,
2013-01-02 03:52:00,22.1,-4.6,30.03,NNW,338,6.3,6.3,30,0.00,,---,0.00,VWS V14.01,2013-01-02 08:52:00,
2013-01-02 03:57:00,22.1,-3.2,30.03,SW,225,3.6,6.3,32,0.00,,---,0.00,VWS V14.01,2013-01-02 08:57:00,
2013-01-02 04:02:00,22.1,-3.2,30.03,WSW,248,0.0,5.4,32,0.00,,---,0.00,VWS V14.01,2013-01-02 09:02:00,
2013-01-02 04:07:00,22.1,-3.2,30.03,SW,225,2.7,6.3,32,0.00,,---,0.00,VWS V14.01,2013-01-02 09:07:00,
2013-01-02 04:12:00,21.9,-3.4,30.03,SW,225,5.8,5.8,32,0.00,,---,0.00,VWS V14.01,2013-01-02 09:12:00,
2013-01-02 04:17:00,21.9,-3.4,30.03,West,270,2.7,5.8,32,0.00,,---,0.00,VWS V14.01,2013-01-02 09:17:00,
2013-01-02 04:22:00,21.9,-3.4,30.03,SW,225,0.0,2.7,32,0.00,,---,0.00,VWS V14.01,2013-01-02 09:22:00,
2013-01-02 04:27:00,21.9,-2.8,30.03,NW,315,2.7,3.6,33,0.00,,---,0.00,VWS V14.01,2013-01-02 09:27:00,
2013-01-02 04:32:00,21.9,-2.8,30.03,South,180,2.2,5.8,33,0.00,,---,0.00,VWS V14.01,2013-01-02 09:32:00,
2013-01-02 04:37:00,21.9,-2.8,30.03,South,180,2.2,5.8,33,0.00,,---,0.00,VWS V14.01,2013-01-02 09:37:00,
2013-01-02 04:42:00,21.9,-2.8,30.03,SW,225,2.7,5.8,33,0.00,,---,0.00,VWS V14.01,2013-01-02 09:42:00,
2013-01-02 04:47:00,21.9,-2.8,30.03,West,270,2.2,5.8,33,0.00,,---,0.00,VWS V14.01,2013-01-02 09:47:00,
2013-01-02 04:52:00,21.9,-2.8,30.03,WSW,248,3.1,5.4,33,0.00,,---,0.00,VWS V14.01,2013-01-02 09:52:00,
2013-01-02 04:57:00,21.9,-2.8,30.03,West,270,2.2,5.4,33,0.00,,---,0.00,VWS V14.01,2013-01-02 09:57:00,
2013-01-02 05:02:00,21.9,-2.8,30.03,West,270,0.0,3.1,33,0.00,,---,0.00,VWS V14.01,2013-01-02 10:02:00,
2013-01-02 05:07:00,21.9,-2.8,30.03,SW,225,8.1,8.1,33,0.00,,---,0.00,VWS V14.01,2013-01-02 10:07:00,
2013-01-02 05:12:00,21.9,-2.8,30.06,West,270,7.2,7.2,33,0.00,,---,0.00,VWS V14.01,2013-01-02 10:12:00,
2013-01-02 05:17:00,21.9,-2.8,30.06,SW,225,0.0,7.6,33,0.00,,---,0.00,VWS V14.01,2013-01-02 10:17:00,
2013-01-02 05:22:00,21.9,-2.8,30.06,SW,225,3.6,5.8,33,0.00,,---,0.00,VWS V14.01,2013-01-02 10:22:00,
2013-01-02 05:27:00,21.7,-2.9,30.03,West,270,5.4,8.7,33,0.00,,---,0.00,VWS V14.01,2013-01-02 10:27:00,
2013-01-02 05:32:00,21.9,-2.8,30.03,SW,225,6.3,6.3,33,0.00,,---,0.00,VWS V14.01,2013-01-02 10:32:00,
2013-01-02 05:37:00,21.9,-2.8,30.03,SW,225,5.8,6.3,33,0.00,,---,0.00,VWS V14.01,2013-01-02 10:37:00,
2013-01-02 05:42:00,21.9,-2.8,30.06,WNW,292,4.0,4.0,33,0.00,,---,0.00,VWS V14.01,2013-01-02 10:42:00,
2013-01-02 05:47:00,21.9,-2.8,30.06,SW,225,3.1,6.3,33,0.00,,---,0.00,VWS V14.01,2013-01-02 10:47:00,
2013-01-02 05:52:00,21.9,-2.8,30.06,WSW,248,7.2,7.2,33,0.00,,---,0.00,VWS V14.01,2013-01-02 10:52:00,
2013-01-02 05:57:00,22.1,-2.6,30.09,West,270,5.8,7.2,33,0.00,,---,0.00,VWS V14.01,2013-01-02 10:57:00,
2013-01-02 06:02:00,22.1,-2.6,30.09,West,270,7.2,7.6,33,0.00,,---,0.00,VWS V14.01,2013-01-02 11:02:00,
2013-01-02 06:07:00,22.3,-2.4,30.09,WSW,248,3.1,7.6,33,0.00,,---,0.00,VWS V14.01,2013-01-02 11:07:00,
2013-01-02 06:12:00,22.3,-2.4,30.09,SSW,202,3.6,6.3,33,0.00,,---,0.00,VWS V14.01,2013-01-02 11:12:00,
2013-01-02 06:17:00,22.3,-2.4,30.09,West,270,2.7,7.6,33,0.00,,---,0.00,VWS V14.01,2013-01-02 11:17:00,
2013-01-02 06:22:00,22.1,-2.6,30.09,West,270,5.4,5.4,33,0.00,,---,0.00,VWS V14.01,2013-01-02 11:22:00,
2013-01-02 06:27:00,22.3,-2.4,30.09,West,270,0.0,5.8,33,0.00,,---,0.00,VWS V14.01,2013-01-02 11:27:00,
2013-01-02 06:32:00,22.1,-2.6,30.09,SW,225,4.9,4.9,33,0.00,,---,0.00,VWS V14.01,2013-01-02 11:32:00,
2013-01-02 06:37:00,22.1,-2.6,30.09,SW,225,3.6,6.3,33,0.00,,---,0.00,VWS V14.01,2013-01-02 11:37:00,
2013-01-02 06:42:00,22.1,-2.6,30.09,West,270,0.0,5.8,33,0.00,,---,0.00,VWS V14.01,2013-01-02 11:42:00,
2013-01-02 06:47:00,22.1,-3.2,30.09,SW,225,2.7,5.8,32,0.00,,---,0.00,VWS V14.01,2013-01-02 11:47:00,
2013-01-02 06:52:00,22.1,-3.2,30.09,SW,225,0.0,5.8,32,0.00,,---,0.00,VWS V14.01,2013-01-02 11:52:00,
2013-01-02 06:57:00,22.1,-2.6,30.12,West,270,4.9,5.8,33,0.00,,---,0.00,VWS V14.01,2013-01-02 11:57:00,
2013-01-02 07:02:00,22.1,-3.2,30.12,SW,225,5.8,8.1,32,0.00,,---,0.00,VWS V14.01,2013-01-02 12:02:00,
2013-01-02 07:07:00,22.1,-3.2,30.12,WSW,248,2.2,8.1,32,0.00,,---,0.00,VWS V14.01,2013-01-02 12:07:00,
2013-01-02 07:12:00,22.1,-3.2,30.09,SW,225,2.7,7.6,32,0.00,,---,0.00,VWS V14.01,2013-01-02 12:12:00,
2013-01-02 07:17:00,22.1,-3.2,30.09,WSW,248,3.6,7.6,32,0.00,,---,0.00,VWS V14.01,2013-01-02 12:17:00,
2013-01-02 07:22:00,22.1,-3.2,30.09,SW,225,2.2,4.9,32,0.00,,---,0.00,VWS V14.01,2013-01-02 12:22:00,
2013-01-02 07:27:00,22.1,-3.2,30.09,SW,225,2.2,4.9,32,0.00,,---,0.00,VWS V14.01,2013-01-02 12:27:00,
2013-01-02 07:32:00,22.1,-3.2,30.09,SW,225,5.8,5.8,32,0.00,,---,0.00,VWS V14.01,2013-01-02 12:32:00,
2013-01-02 07:37:00,22.1,-3.2,30.09,WSW,248,5.8,7.2,32,0.00,,---,0.00,VWS V14.01,2013-01-02 12:37:00,
2013-01-02 07:42:00,22.1,-3.2,30.12,WSW,248,6.3,6.3,32,0.00,,---,0.00,VWS V14.01,2013-01-02 12:42:00,
2013-01-02 07:47:00,22.1,-3.2,30.12,SW,225,4.0,6.3,32,0.00,,---,0.00,VWS V14.01,2013-01-02 12:47:00,
2013-01-02 07:52:00,22.1,-3.2,30.12,WSW,248,5.8,5.8,32,0.00,,---,0.00,VWS V14.01,2013-01-02 12:52:00,
2013-01-02 07:57:00,22.1,-3.2,30.12,West,270,3.1,5.8,32,0.00,,---,0.00,VWS V14.01,2013-01-02 12:57:00,
2013-01-02 08:02:00,22.1,-3.2,30.12,NNE,22,0.0,4.5,32,0.00,,---,0.00,VWS V14.01,2013-01-02 13:02:00,
2013-01-02 08:07:00,22.3,-3.1,30.12,West,270,0.0,4.5,32,0.00,,---,0.00,VWS V14.01,2013-01-02 13:07:00,
2013-01-02 08:12:00,22.3,-3.1,30.12,WNW,292,0.0,2.2,32,0.00,,---,0.00,VWS V14.01,2013-01-02 13:12:00,
2013-01-02 08:17:00,22.3,-3.1,30.12,West,270,2.7,4.9,32,0.00,,---,0.00,VWS V14.01,2013-01-02 13:17:00,
2013-01-02 08:22:00,22.3,-3.1,30.12,West,270,0.0,3.1,32,0.00,,---,0.00,VWS V14.01,2013-01-02 13:22:00,
2013-01-02 08:27:00,22.5,-2.3,30.12,SW,225,0.0,7.6,33,0.00,,---,0.00,VWS V14.01,2013-01-02 13:27:00,
2013-01-02 08:32:00,22.5,-2.9,30.12,West,270,0.0,2.2,32,0.00,,---,0.00,VWS V14.01,2013-01-02 13:32:00,
2013-01-02 08:37:00,22.6,-2.1,30.12,West,270,0.0,4.0,33,0.00,,---,0.00,VWS V14.01,2013-01-02 13:37:00,
2013-01-02 08:42:00,22.6,-2.1,30.12,NW,315,4.9,4.9,33,0.00,,---,0.00,VWS V14.01,2013-01-02 13:42:00,
2013-01-02 08:47:00,22.8,-2.0,30.12,West,270,2.7,4.9,33,0.00,,---,0.00,VWS V14.01,2013-01-02 13:47:00,
2013-01-02 08:52:00,23.2,-2.3,30.12,NW,315,3.1,5.8,32,0.00,,---,0.00,VWS V14.01,2013-01-02 13:52:00,
2013-01-02 08:57:00,23.5,-2.0,30.12,NW,315,3.6,7.2,32,0.00,,---,0.00,VWS V14.01,2013-01-02 13:57:00,
2013-01-02 09:02:00,23.5,-2.0,30.12,West,270,2.2,7.6,32,0.00,,---,0.00,VWS V14.01,2013-01-02 14:02:00,
2013-01-02 09:07:00,23.5,-4.0,30.12,SW,225,3.6,7.6,29,0.00,,---,0.00,VWS V14.01,2013-01-02 14:07:00,
2013-01-02 09:12:00,23.7,-3.9,30.12,ENE,68,0.0,5.4,29,0.00,,---,0.00,VWS V14.01,2013-01-02 14:12:00,
2013-01-02 09:17:00,23.7,-3.9,30.12,SW,225,3.1,5.8,29,0.00,,---,0.00,VWS V14.01,2013-01-02 14:17:00,
2013-01-02 09:22:00,23.7,-1.8,30.12,NW,315,0.0,6.3,32,0.00,,---,0.00,VWS V14.01,2013-01-02 14:22:00,
2013-01-02 09:27:00,23.7,-1.8,30.12,NE,45,4.0,7.6,32,0.00,,---,0.00,VWS V14.01,2013-01-02 14:27:00,
2013-01-02 09:32:00,23.7,-1.8,30.12,South,180,4.0,5.4,32,0.00,,---,0.00,VWS V14.01,2013-01-02 14:32:00,
2013-01-02 09:37:00,23.7,-1.8,30.12,North,0,4.0,5.4,32,0.00,,---,0.00,VWS V14.01,2013-01-02 14:37:00,
2013-01-02 09:42:00,23.7,-1.8,30.12,NNW,338,3.6,4.0,32,0.00,,---,0.00,VWS V14.01,2013-01-02 14:42:00,
2013-01-02 09:47:00,23.7,-1.8,30.12,SSW,202,2.7,5.8,32,0.00,,---,0.00,VWS V14.01,2013-01-02 14:47:00,
2013-01-02 09:52:00,23.5,-2.0,30.12,West,270,2.2,4.0,32,0.00,,---,0.00,VWS V14.01,2013-01-02 14:52:00,
2013-01-02 09:57:00,23.7,-3.9,30.15,West,270,3.1,10.5,29,0.00,,---,0.00,VWS V14.01,2013-01-02 14:57:00,
2013-01-02 10:01:00,23.9,-3.7,30.15,NW,315,2.7,8.1,29,0.00,,---,0.00,VWS V14.01,2013-01-02 15:01:00,
2013-01-02 10:06:00,23.9,-5.2,30.15,SE,135,6.7,8.1,27,0.00,,---,0.00,VWS V14.01,2013-01-02 15:06:00,
2013-01-02 10:11:00,24.3,-4.9,30.15,NW,315,2.7,4.0,27,0.00,,---,0.00,VWS V14.01,2013-01-02 15:11:00,
2013-01-02 10:16:00,24.3,-4.9,30.15,SW,225,0.0,4.0,27,0.00,,---,0.00,VWS V14.01,2013-01-02 15:16:00,
2013-01-02 10:21:00,24.1,-5.1,30.15,SW,225,3.1,6.3,27,0.00,,---,0.00,VWS V14.01,2013-01-02 15:21:00,
2013-01-02 10:27:00,23.9,-5.2,30.15,NW,315,2.2,7.2,27,0.00,,---,0.00,VWS V14.01,2013-01-02 15:27:00,
2013-01-02 10:32:00,23.9,-3.7,30.15,North,0,0.0,3.6,29,0.00,,---,0.00,VWS V14.01,2013-01-02 15:32:00,
2013-01-02 10:37:00,23.7,-3.9,30.15,SW,225,0.0,4.9,29,0.00,,---,0.00,VWS V14.01,2013-01-02 15:37:00,
2013-01-02 10:42:00,23.9,-3.7,30.15,NW,315,0.0,5.4,29,0.00,,---,0.00,VWS V14.01,2013-01-02 15:42:00,
2013-01-02 10:46:00,24.1,-3.6,30.15,NNW,338,0.0,8.3,29,0.00,,---,0.00,VWS V14.01,2013-01-02 15:46:00,
2013-01-02 10:51:00,24.3,-3.4,30.15,South,180,0.0,0.0,29,0.00,,---,0.00,VWS V14.01,2013-01-02 15:51:00,
2013-01-02 10:56:00,24.4,-3.2,30.15,NE,45,0.0,5.4,29,0.00,,---,0.00,VWS V14.01,2013-01-02 15:56:00,
2013-01-02 11:01:00,24.6,-4.6,30.15,NW,315,0.0,2.7,27,0.00,,---,0.00,VWS V14.01,2013-01-02 16:01:00,
2013-01-02 11:06:00,24.6,-4.6,30.15,NW,315,3.6,6.3,27,0.00,,---,0.00,VWS V14.01,2013-01-02 16:06:00,
2013-01-02 11:11:00,24.4,-4.7,30.15,NNW,338,0.0,6.3,27,0.00,,---,0.00,VWS V14.01,2013-01-02 16:11:00,
2013-01-02 11:16:00,24.3,-4.9,30.15,North,0,0.0,6.3,27,0.00,,---,0.00,VWS V14.01,2013-01-02 16:16:00,
2013-01-02 11:21:00,24.4,-4.7,30.15,East,90,0.0,4.9,27,0.00,,---,0.00,VWS V14.01,2013-01-02 16:21:00,
2013-01-02 11:26:00,24.3,-3.4,30.15,West,270,2.2,4.9,29,0.00,,---,0.00,VWS V14.01,2013-01-02 16:26:00,
2013-01-02 11:31:00,24.4,-3.2,30.15,North,0,3.1,4.0,29,0.00,,---,0.00,VWS V14.01,2013-01-02 16:31:00,
2013-01-02 11:36:00,24.4,-3.2,30.15,NW,315,2.7,4.0,29,0.00,,---,0.00,VWS V14.01,2013-01-02 16:36:00,
2013-01-02 11:41:00,24.1,-3.6,30.18,SW,225,0.0,4.0,29,0.00,,---,0.00,VWS V14.01,2013-01-02 16:41:00,
2013-01-02 11:46:00,24.3,-3.4,30.18,SW,225,3.1,4.0,29,0.00,,---,0.00,VWS V14.01,2013-01-02 16:46:00,
2013-01-02 11:51:00,24.1,-3.6,30.18,SW,225,0.0,3.1,29,0.00,,---,0.00,VWS V14.01,2013-01-02 16:51:00,
2013-01-02 11:56:00,24.3,-1.3,30.18,North,0,0.0,3.1,32,0.00,,---,0.00,VWS V14.01,2013-01-02 16:56:00,
2013-01-02 12:01:00,23.9,-1.7,30.18,NW,315,3.1,3.6,32,0.00,,---,0.00,VWS V14.01,2013-01-02 17:01:00,
2013-01-02 12:06:00,24.1,-1.5,30.18,West,270,3.6,3.6,32,0.00,,---,0.00,VWS V14.01,2013-01-02 17:06:00,
2013-01-02 12:11:00,24.1,-1.5,30.15,South,180,0.0,3.1,32,0.00,,---,0.00,VWS V14.01,2013-01-02 17:11:00,
2013-01-02 12:16:00,23.9,-1.7,30.15,North,0,0.0,4.0,32,0.00,,---,0.00,VWS V14.01,2013-01-02 17:16:00,
2013-01-02 12:21:00,24.1,-1.5,30.15,South,180,3.1,3.1,32,0.00,,---,0.00,VWS V14.01,2013-01-02 17:21:00,
2013-01-02 12:26:00,24.3,-1.3,30.18,WNW,292,0.0,3.1,32,0.00,,---,0.00,VWS V14.01,2013-01-02 17:26:00,
2013-01-02 12:31:00,24.3,-1.3,30.18,SW,225,3.6,4.0,32,0.00,,---,0.00,VWS V14.01,2013-01-02 17:31:00,
2013-01-02 12:36:00,23.7,-3.9,30.18,NNE,22,4.9,6.3,29,0.00,,---,0.00,VWS V14.01,2013-01-02 17:36:00,
2013-01-02 12:41:00,23.7,-3.9,30.18,NNW,338,0.0,4.9,29,0.00,,---,0.00,VWS V14.01,2013-01-02 17:41:00,
2013-01-02 12:46:00,23.7,-3.9,30.18,SSW,202,5.4,5.4,29,0.00,,---,0.00,VWS V14.01,2013-01-02 17:46:00,
2013-01-02 12:51:00,23.7,-3.9,30.18,South,180,4.9,7.2,29,0.00,,---,0.00,VWS V14.01,2013-01-02 17:51:00,
2013-01-02 12:56:00,23.5,-5.5,30.18,SW,225,2.7,7.2,27,0.00,,---,0.00,VWS V14.01,2013-01-02 17:56:00,
2013-01-02 13:01:00,23.2,-5.8,30.18,NW,315,0.0,3.1,27,0.00,,---,0.00,VWS V14.01,2013-01-02 18:01:00,
2013-01-02 13:06:00,23.5,-5.5,30.18,SSW,202,0.0,6.3,27,0.00,,---,0.00,VWS V14.01,2013-01-02 18:06:00,
2013-01-02 13:11:00,24.1,-5.1,30.15,South,180,3.1,3.6,27,0.00,,---,0.00,VWS V14.01,2013-01-02 18:11:00,
2013-01-02 13:16:00,23.7,-5.4,30.15,North,0,2.7,5.4,27,0.00,,---,0.00,VWS V14.01,2013-01-02 18:16:00,
2013-01-02 13:21:00,23.9,-5.2,30.15,NW,315,4.0,5.8,27,0.00,,---,0.00,VWS V14.01,2013-01-02 18:21:00,
2013-01-02 13:26:00,23.7,-5.4,30.15,NW,315,2.7,5.8,27,0.00,,---,0.00,VWS V14.01,2013-01-02 18:26:00,
2013-01-02 13:31:00,23.7,-5.4,30.15,SSW,202,4.9,5.4,27,0.00,,---,0.00,VWS V14.01,2013-01-02 18:31:00,
2013-01-02 13:36:00,23.5,-5.5,30.15,NW,315,2.2,5.4,27,0.00,,---,0.00,VWS V14.01,2013-01-02 18:36:00,
2013-01-02 13:41:00,23.4,-5.7,30.15,West,270,5.8,5.8,27,0.00,,---,0.00,VWS V14.01,2013-01-02 18:41:00,
2013-01-02 13:46:00,23.5,-5.5,30.15,SW,225,4.9,7.2,27,0.00,,---,0.00,VWS V14.01,2013-01-02 18:46:00,
2013-01-02 13:51:00,23.4,-5.7,30.15,South,180,3.6,3.6,27,0.00,,---,0.00,VWS V14.01,2013-01-02 18:51:00,
2013-01-02 13:56:00,23.5,-5.5,30.15,North,0,5.8,5.8,27,0.00,,---,0.00,VWS V14.01,2013-01-02 18:56:00,
2013-01-02 14:01:00,23.5,-5.5,30.15,West,270,0.0,4.0,27,0.00,,---,0.00,VWS V14.01,2013-01-02 19:01:00,
2013-01-02 14:06:00,23.5,-4.0,30.15,WSW,248,3.1,7.6,29,0.00,,---,0.00,VWS V14.01,2013-01-02 19:06:00,
2013-01-02 14:11:00,23.5,-4.0,30.18,NW,315,2.7,4.9,29,0.00,,---,0.00,VWS V14.01,2013-01-02 19:11:00,
2013-01-02 14:16:00,23.4,-5.7,30.18,NW,315,3.1,7.2,27,0.00,,---,0.00,VWS V14.01,2013-01-02 19:16:00,
2013-01-02 14:21:00,23.4,-5.7,30.18,NW,315,0.0,7.2,27,0.00,,---,0.00,VWS V14.01,2013-01-02 19:21:00,
2013-01-02 14:26:00,23.5,-5.5,30.18,NNW,338,0.0,7.2,27,0.00,,---,0.00,VWS V14.01,2013-01-02 19:26:00,
2013-01-02 14:31:00,23.5,-5.5,30.18,North,0,0.0,4.9,27,0.00,,---,0.00,VWS V14.01,2013-01-02 19:31:00,
2013-01-02 14:36:00,23.5,-5.5,30.18,West,270,0.0,5.4,27,0.00,,---,0.00,VWS V14.01,2013-01-02 19:36:00,
2013-01-02 14:41:00,23.5,-4.0,30.18,West,270,0.0,0.0,29,0.00,,---,0.00,VWS V14.01,2013-01-02 19:41:00,
2013-01-02 14:46:00,23.7,-3.9,30.18,WSW,248,2.7,5.8,29,0.00,,---,0.00,VWS V14.01,2013-01-02 19:46:00,
2013-01-02 14:51:00,23.7,-3.9,30.18,NW,315,0.0,0.0,29,0.00,,---,0.00,VWS V14.01,2013-01-02 19:51:00,
2013-01-02 14:56:00,23.5,-5.5,30.18,North,0,0.0,4.5,27,0.00,,---,0.00,VWS V14.01,2013-01-02 19:56:00,
2013-01-02 15:01:00,23.5,-4.0,30.18,West,270,3.6,4.0,29,0.00,,---,0.00,VWS V14.01,2013-01-02 20:01:00,
2013-01-02 15:06:00,23.5,-4.0,30.18,NW,315,4.5,4.5,29,0.00,,---,0.00,VWS V14.01,2013-01-02 20:06:00,
2013-01-02 15:11:00,23.5,-4.0,30.18,SW,225,3.6,3.6,29,0.00,,---,0.00,VWS V14.01,2013-01-02 20:11:00,
2013-01-02 15:16:00,23.5,-4.0,30.18,SW,225,0.0,4.9,29,0.00,,---,0.00,VWS V14.01,2013-01-02 20:16:00,
2013-01-02 15:21:00,23.5,-4.0,30.18,West,270,0.0,4.0,29,0.00,,---,0.00,VWS V14.01,2013-01-02 20:21:00,
2013-01-02 15:26:00,23.4,-4.2,30.15,WSW,248,4.9,6.7,29,0.00,,---,0.00,VWS V14.01,2013-01-02 20:26:00,
2013-01-02 15:31:00,23.4,-4.2,30.15,WSW,248,2.7,3.1,29,0.00,,---,0.00,VWS V14.01,2013-01-02 20:31:00,
2013-01-02 15:36:00,23.4,-4.2,30.15,NW,315,0.0,5.8,29,0.00,,---,0.00,VWS V14.01,2013-01-02 20:36:00,
2013-01-02 15:41:00,23.4,-4.2,30.15,NW,315,3.1,3.1,29,0.00,,---,0.00,VWS V14.01,2013-01-02 20:41:00,
2013-01-02 15:46:00,23.4,-4.2,30.15,West,270,3.1,4.9,29,0.00,,---,0.00,VWS V14.01,2013-01-02 20:46:00,
2013-01-02 15:51:00,23.4,-4.2,30.15,SW,225,2.7,3.1,29,0.00,,---,0.00,VWS V14.01,2013-01-02 20:51:00,
2013-01-02 15:56:00,23.2,-4.3,30.18,SW,225,3.1,6.3,29,0.00,,---,0.00,VWS V14.01,2013-01-02 20:56:00,
2013-01-02 16:01:00,23.2,-5.8,30.18,West,270,0.0,3.1,27,0.00,,---,0.00,VWS V14.01,2013-01-02 21:01:00,
2013-01-02 16:06:00,23.2,-5.8,30.18,West,270,4.9,4.9,27,0.00,,---,0.00,VWS V14.01,2013-01-02 21:06:00,
2013-01-02 16:11:00,23.2,-4.3,30.18,WNW,292,0.0,3.6,29,0.00,,---,0.00,VWS V14.01,2013-01-02 21:11:00,
2013-01-02 16:16:00,23.2,-5.8,30.18,SW,225,4.0,4.9,27,0.00,,---,0.00,VWS V14.01,2013-01-02 21:16:00,
2013-01-02 16:21:00,23.2,-4.3,30.18,SW,225,3.6,3.6,29,0.00,,---,0.00,VWS V14.01,2013-01-02 21:21:00,
2013-01-02 16:26:00,23.2,-4.3,30.18,SSW,202,3.1,5.4,29,0.00,,---,0.00,VWS V14.01,2013-01-02 21:26:00,
2013-01-02 16:31:00,23.0,-3.8,30.18,West,270,3.1,4.0,30,0.00,,---,0.00,VWS V14.01,2013-01-02 21:31:00,
2013-01-02 16:36:00,23.2,-4.3,30.18,West,270,0.0,5.8,29,0.00,,---,0.00,VWS V14.01,2013-01-02 21:36:00,
2013-01-02 16:41:00,23.0,-3.8,30.18,WSW,248,0.0,2.2,30,0.00,,---,0.00,VWS V14.01,2013-01-02 21:41:00,
2013-01-02 16:46:00,23.0,-2.5,30.18,West,270,3.1,6.3,32,0.00,,---,0.00,VWS V14.01,2013-01-02 21:46:00,
2013-01-02 16:51:00,23.0,-2.5,30.18,West,270,3.1,5.8,32,0.00,,---,0.00,VWS V14.01,2013-01-02 21:51:00,
2013-01-02 16:56:00,22.8,-2.6,30.18,West,270,2.2,5.8,32,0.00,,---,0.00,VWS V14.01,2013-01-02 21:56:00,
2013-01-02 17:01:00,22.8,-2.6,30.18,West,270,3.1,4.0,32,0.00,,---,0.00,VWS V14.01,2013-01-02 22:01:00,
2013-01-02 17:06:00,22.8,-2.0,30.18,South,180,3.1,8.1,33,0.00,,---,0.00,VWS V14.01,2013-01-02 22:06:00,
2013-01-02 17:11:00,22.8,-2.0,30.15,SW,225,0.0,3.6,33,0.00,,---,0.00,VWS V14.01,2013-01-02 22:11:00,
2013-01-02 17:16:00,22.6,-2.1,30.15,West,270,0.0,4.0,33,0.00,,---,0.00,VWS V14.01,2013-01-02 22:16:00,
2013-01-02 17:21:00,22.6,-1.5,30.15,WSW,248,2.2,3.6,34,0.00,,---,0.00,VWS V14.01,2013-01-02 22:21:00,
2013-01-02 17:26:00,22.5,-1.6,30.15,West,270,2.7,6.3,34,0.00,,---,0.00,VWS V14.01,2013-01-02 22:26:00,
2013-01-02 17:31:00,22.6,-0.9,30.15,SW,225,6.7,6.7,35,0.00,,---,0.00,VWS V14.01,2013-01-02 22:31:00,
2013-01-02 17:36:00,22.5,-0.4,30.15,SW,225,3.6,6.7,36,0.00,,---,0.00,VWS V14.01,2013-01-02 22:36:00,
2013-01-02 17:41:00,22.5,-0.4,30.18,West,270,0.0,0.0,36,0.00,,---,0.00,VWS V14.01,2013-01-02 22:41:00,
2013-01-02 17:46:00,22.5,0.7,30.18,WSW,248,0.0,6.3,38,0.00,,---,0.00,VWS V14.01,2013-01-02 22:46:00,
2013-01-02 17:51:00,22.5,0.7,30.18,SW,225,3.1,4.5,38,0.00,,---,0.00,VWS V14.01,2013-01-02 22:51:00,
2013-01-02 17:56:00,22.5,1.3,30.18,SW,225,3.6,6.3,39,0.00,,---,0.00,VWS V14.01,2013-01-02 22:56:00,
2013-01-02 18:01:00,22.5,1.8,30.18,WSW,248,0.0,4.0,40,0.00,,---,0.00,VWS V14.01,2013-01-02 23:01:00,
2013-01-02 18:06:00,22.5,1.8,30.18,West,270,4.0,5.4,40,0.00,,---,0.00,VWS V14.01,2013-01-02 23:06:00,
2013-01-02 18:11:00,22.5,1.8,30.18,WSW,248,4.9,4.9,40,0.00,,---,0.00,VWS V14.01,2013-01-02 23:11:00,
2013-01-02 18:16:00,22.5,1.8,30.18,West,270,3.1,5.4,40,0.00,,---,0.00,VWS V14.01,2013-01-02 23:16:00,
2013-01-02 18:21:00,22.5,1.8,30.18,SW,225,0.0,5.4,40,0.00,,---,0.00,VWS V14.01,2013-01-02 23:21:00,
2013-01-02 18:26:00,22.5,1.8,30.18,SW,225,0.0,5.4,40,0.00,,---,0.00,VWS V14.01,2013-01-02 23:26:00,
2013-01-02 18:31:00,22.5,2.3,30.18,West,270,3.1,4.0,41,0.00,,---,0.00,VWS V14.01,2013-01-02 23:31:00,
2013-01-02 18:36:00,22.5,2.3,30.18,West,270,6.3,6.3,41,0.00,,---,0.00,VWS V14.01,2013-01-02 23:36:00,
2013-01-02 18:41:00,22.3,2.2,30.18,SW,225,5.8,5.8,41,0.00,,---,0.00,VWS V14.01,2013-01-02 23:41:00,
2013-01-02 18:46:00,22.3,2.2,30.18,SW,225,2.7,7.2,41,0.00,,---,0.00,VWS V14.01,2013-01-02 23:46:00,
2013-01-02 18:51:00,22.3,2.2,30.18,SW,225,2.7,7.2,41,0.00,,---,0.00,VWS V14.01,2013-01-02 23:51:00,
2013-01-02 18:56:00,22.3,2.7,30.18,West,270,4.9,7.2,42,0.00,,---,0.00,VWS V14.01,2013-01-02 23:56:00,
2013-01-02 19:01:00,22.3,2.7,30.18,SE,135,0.0,3.1,42,0.00,,---,0.00,VWS V14.01,2013-01-03 00:01:00,
2013-01-02 19:06:00,22.3,2.7,30.18,SW,225,0.0,5.8,42,0.00,,---,0.00,VWS V14.01,2013-01-03 00:06:00,
2013-01-02 19:11:00,22.3,2.7,30.18,SW,225,0.0,5.8,42,0.00,,---,0.00,VWS V14.01,2013-01-03 00:11:00,
2013-01-02 19:16:00,22.3,2.7,30.18,West,270,2.7,5.8,42,0.00,,---,0.00,VWS V14.01,2013-01-03 00:16:00,
2013-01-02 19:21:00,22.3,2.7,30.18,WSW,248,3.6,4.0,42,0.00,,---,0.00,VWS V14.01,2013-01-03 00:21:00,
2013-01-02 19:26:00,22.1,2.5,30.18,SW,225,3.6,5.8,42,0.00,,---,0.00,VWS V14.01,2013-01-03 00:26:00,
2013-01-02 19:31:00,22.3,2.7,30.18,SW,225,3.1,4.5,42,0.00,,---,0.00,VWS V14.01,2013-01-03 00:31:00,
2013-01-02 19:36:00,22.3,2.7,30.18,SW,225,2.2,7.2,42,0.00,,---,0.00,VWS V14.01,2013-01-03 00:36:00,
2013-01-02 19:42:00,22.3,2.2,30.18,West,270,5.8,7.6,41,0.00,,---,0.00,VWS V14.01,2013-01-03 00:42:00,
2013-01-02 19:46:00,22.3,2.2,30.18,West,270,2.2,7.6,41,0.00,,---,0.00,VWS V14.01,2013-01-03 00:46:00,
2013-01-02 19:51:00,22.1,2.0,30.18,SW,225,0.0,3.6,41,0.00,,---,0.00,VWS V14.01,2013-01-03 00:51:00,
2013-01-02 19:57:00,22.3,2.2,30.18,West,270,3.1,4.0,41,0.00,,---,0.00,VWS V14.01,2013-01-03 00:57:00,
2013-01-02 20:02:00,22.1,1.5,30.18,SSW,202,3.1,7.2,40,0.00,,---,0.00,VWS V14.01,2013-01-03 01:02:00,
2013-01-02 20:07:00,22.3,1.1,30.18,SW,225,4.5,7.2,39,0.00,,---,0.00,VWS V14.01,2013-01-03 01:07:00,
2013-01-02 20:12:00,22.3,1.1,30.18,West,270,0.0,4.0,39,0.00,,---,0.00,VWS V14.01,2013-01-03 01:12:00,
2013-01-02 20:17:00,22.3,0.5,30.18,West,270,3.6,6.3,38,0.00,,---,0.00,VWS V14.01,2013-01-03 01:17:00,
2013-01-02 20:22:00,22.3,0.5,30.18,SW,225,0.0,4.9,38,0.00,,---,0.00,VWS V14.01,2013-01-03 01:22:00,
2013-01-02 20:27:00,22.3,0.5,30.18,WNW,292,0.0,5.4,38,0.00,,---,0.00,VWS V14.01,2013-01-03 01:27:00,
2013-01-02 20:32:00,22.3,0.0,30.18,SSW,202,3.1,6.3,37,0.00,,---,0.00,VWS V14.01,2013-01-03 01:32:00,
2013-01-02 20:37:00,22.1,-0.2,30.18,WSW,248,0.0,7.2,37,0.00,,---,0.00,VWS V14.01,2013-01-03 01:37:00,
2013-01-02 20:42:00,22.3,-0.6,30.21,West,270,0.0,3.6,36,0.00,,---,0.00,VWS V14.01,2013-01-03 01:42:00,
2013-01-02 20:47:00,22.3,-0.6,30.21,West,270,3.1,6.3,36,0.00,,---,0.00,VWS V14.01,2013-01-03 01:47:00,
2013-01-02 20:52:00,22.3,-1.2,30.21,West,270,3.1,5.4,35,0.00,,---,0.00,VWS V14.01,2013-01-03 01:52:00,
2013-01-02 20:57:00,22.3,-1.2,30.21,West,270,11.0,11.0,35,0.00,,---,0.00,VWS V14.01,2013-01-03 01:57:00,
2013-01-02 21:02:00,22.3,-1.2,30.21,West,270,3.6,5.8,35,0.00,,---,0.00,VWS V14.01,2013-01-03 02:02:00,
2013-01-02 21:07:00,22.1,-1.4,30.21,West,270,2.7,5.8,35,0.00,,---,0.00,VWS V14.01,2013-01-03 02:07:00,
2013-01-02 21:12:00,22.1,-2.0,30.18,SW,225,5.4,9.6,34,0.00,,---,0.00,VWS V14.01,2013-01-03 02:12:00,
2013-01-02 21:17:00,22.1,-2.0,30.18,SE,135,0.0,9.6,34,0.00,,---,0.00,VWS V14.01,2013-01-03 02:17:00,
2013-01-02 21:22:00,21.9,-2.1,30.18,South,180,0.0,4.0,34,0.00,,---,0.00,VWS V14.01,2013-01-03 02:22:00,
2013-01-02 21:27:00,21.9,-2.1,30.18,West,270,2.7,5.8,34,0.00,,---,0.00,VWS V14.01,2013-01-03 02:27:00,
2013-01-02 21:32:00,21.9,-2.1,30.18,SW,225,2.2,5.8,34,0.00,,---,0.00,VWS V14.01,2013-01-03 02:32:00,
2013-01-02 21:37:00,21.9,-2.1,30.18,West,270,0.0,6.3,34,0.00,,---,0.00,VWS V14.01,2013-01-03 02:37:00,
2013-01-02 21:42:00,21.9,-2.8,30.18,WSW,248,2.2,5.4,33,0.00,,---,0.00,VWS V14.01,2013-01-03 02:42:00,
2013-01-02 21:47:00,21.9,-2.8,30.18,South,180,2.7,5.8,33,0.00,,---,0.00,VWS V14.01,2013-01-03 02:47:00,
2013-01-02 21:52:00,21.9,-2.8,30.18,SW,225,2.7,3.6,33,0.00,,---,0.00,VWS V14.01,2013-01-03 02:52:00,
2013-01-02 21:57:00,21.9,-2.8,30.21,SW,225,0.0,7.6,33,0.00,,---,0.00,VWS V14.01,2013-01-03 02:57:00,
2013-01-02 22:02:00,21.7,-2.9,30.21,West,270,5.4,5.4,33,0.00,,---,0.00,VWS V14.01,2013-01-03 03:02:00,
2013-01-02 22:06:00,21.7,-2.9,30.21,SW,225,2.2,7.6,33,0.00,,---,0.00,VWS V14.01,2013-01-03 03:06:00,
2013-01-02 22:11:00,21.7,-2.9,30.21,West,270,3.6,4.0,33,0.00,,---,0.00,VWS V14.01,2013-01-03 03:11:00,
2013-01-02 22:16:00,21.7,-2.9,30.21,South,180,0.0,6.3,33,0.00,,---,0.00,VWS V14.01,2013-01-03 03:16:00,
2013-01-02 22:21:00,21.7,-2.9,30.21,West,270,3.6,4.9,33,0.00,,---,0.00,VWS V14.01,2013-01-03 03:21:00,
2013-01-02 22:26:00,21.6,-3.1,30.21,South,180,4.0,7.2,33,0.00,,---,0.00,VWS V14.01,2013-01-03 03:26:00,
2013-01-02 22:32:00,21.6,-3.7,30.21,West,270,4.0,6.3,32,0.00,,---,0.00,VWS V14.01,2013-01-03 03:32:00,
2013-01-02 22:37:00,21.6,-3.7,30.21,SW,225,3.1,6.3,32,0.00,,---,0.00,VWS V14.01,2013-01-03 03:37:00,
2013-01-02 22:42:00,21.6,-3.7,30.21,South,180,3.1,3.1,32,0.00,,---,0.00,VWS V14.01,2013-01-03 03:42:00,
2013-01-02 22:47:00,21.6,-3.7,30.21,WSW,248,3.6,4.9,32,0.00,,---,0.00,VWS V14.01,2013-01-03 03:47:00,
2013-01-02 22:52:00,21.6,-3.7,30.21,SW,225,0.0,5.4,32,0.00,,---,0.00,VWS V14.01,2013-01-03 03:52:00,
2013-01-02 22:57:00,21.6,-3.7,30.18,South,180,3.6,8.7,32,0.00,,---,0.00,VWS V14.01,2013-01-03 03:57:00,
2013-01-02 23:02:00,21.6,-5.1,30.18,South,180,3.6,5.8,30,0.00,,---,0.00,VWS V14.01,2013-01-03 04:02:00,
2013-01-02 23:07:00,21.4,-5.2,30.18,South,180,2.2,7.6,30,0.00,,---,0.00,VWS V14.01,2013-01-03 04:07:00,
2013-01-02 23:12:00,21.4,-5.2,30.18,West,270,3.1,7.6,30,0.00,,---,0.00,VWS V14.01,2013-01-03 04:12:00,
2013-01-02 23:17:00,21.4,-5.2,30.18,WSW,248,6.7,7.6,30,0.00,,---,0.00,VWS V14.01,2013-01-03 04:17:00,
2013-01-02 23:22:00,21.4,-5.2,30.18,SW,225,4.0,5.4,30,0.00,,---,0.00,VWS V14.01,2013-01-03 04:22:00,
2013-01-02 23:27:00,21.4,-5.2,30.21,SW,225,5.4,5.8,30,0.00,,---,0.00,VWS V14.01,2013-01-03 04:27:00,
2013-01-02 23:32:00,21.4,-5.2,30.21,SW,225,5.8,5.8,30,0.00,,---,0.00,VWS V14.01,2013-01-03 04:32:00,
2013-01-02 23:37:00,21.6,-5.1,30.21,WSW,248,0.0,8.7,30,0.00,,---,0.00,VWS V14.01,2013-01-03 04:37:00,
2013-01-02 23:42:00,21.6,-5.1,30.18,SW,225,3.6,6.3,30,0.00,,---,0.00,VWS V14.01,2013-01-03 04:42:00,
2013-01-02 23:47:00,21.6,-5.1,30.18,SW,225,6.7,6.7,30,0.00,,---,0.00,VWS V14.01,2013-01-03 04:47:00,
2013-01-02 23:52:00,21.4,-5.2,30.18,SW,225,7.6,7.6,30,0.00,,---,0.00,VWS V14.01,2013-01-03 04:52:00,
2013-01-02 23:57:00,21.6,-5.1,30.18,SW,225,2.7,7.6,30,0.00,,---,0.00,VWS V14.01,2013-01-03 04:57:00,